KI4SSU Weather Reports


Display with metric or nautical units.
time (UTC)temp
F
wind
direction
speed
MPH
gust
MPH
rain 1hr
in
rain 24hr
in
rain mn
in
humidity
%
barometer
mb
20260507180111 79 359 3.0 8.0 0.00 0.00 0.00
20260507175611 78 359 3.0 4.0 0.00 0.00 0.00
20260507175111 78 13 1.0 1.0 0.00 0.00 0.00
20260507174611 78 146 2.0 4.0 0.00 0.00 0.00
20260507174111 78 332 2.0 3.0 0.00 0.00 0.00
20260507173111 78 14 2.0 4.0 0.00 0.00 0.00
20260507172611 76 28 3.0 7.0 0.00 0.00 0.00
20260507172112 75 291 3.0 7.0 0.00 0.00 0.00
20260507171611 75 348 3.0 1.0 0.00 0.00 0.00
20260507171111 74 324 2.0 5.0 0.00 0.00 0.00
20260507170611 73 359 4.0 5.0 0.00 0.00 0.00
20260507170111 73 356 1.0 4.0 0.00 0.00 0.00
20260507165611 74 11 4.0 2.0 0.00 0.00 0.00
20260507165111 74 315 3.0 1.0 0.00 0.00 0.00
20260507164611 74 3 2.0 0.0 0.00 0.00 0.00
20260507164111 73 359 5.0 5.0 0.00 0.00 0.00
20260507163611 73 320 4.0 6.0 0.00 0.00 0.00
20260507163111 71 334 6.0 7.0 0.00 0.00 0.00
20260507162611 70 348 3.0 2.0 0.00 0.00 0.00
20260507162111 70 52 1.0 2.0 0.00 0.00 0.00
20260507161611 70 355 1.0 1.0 0.00 0.00 0.00
20260507161112 70 338 1.0 0.0 0.00 0.00 0.00
20260507160611 69 70 2.0 1.0 0.00 0.00 0.00
20260507160111 70 338 1.0 4.0 0.00 0.00 0.00
20260507155611 70 13 2.0 1.0 0.00 0.00 0.00
20260507155111 70 69 2.0 3.0 0.00 0.00 0.00
20260507154611 70 4 1.0 3.0 0.00 0.00 0.00
20260507154112 70 27 2.0 0.0 0.00 0.00 0.00
20260507153111 69 65 0.0 0.0 0.00 0.00 0.00
20260507152611 69 62 2.0 2.0 0.00 0.00 0.00
20260507152111 68 92 3.0 4.0 0.00 0.00 0.00
20260507151611 68 356 4.0 4.0 0.00 0.00 0.00
20260507151111 67 1 1.0 3.0 0.00 0.00 0.00
20260507150611 67 28 0.0 0.0 0.00 0.00 0.00
20260507150112 66 359 2.0 4.0 0.00 0.00 0.00
20260507145612 66 18 5.0 7.0 0.00 0.00 0.00
20260507145111 66 331 2.0 5.0 0.00 0.00 0.00
20260507144612 65 14 1.0 1.0 0.00 0.00 0.00
20260507144112 64 24 2.0 1.0 0.00 0.00 0.00
20260507143612 64 355 3.0 2.0 0.00 0.00 0.00
20260507143112 63 114 2.0 2.0 0.00 0.00 0.00
20260507142612 63 194 1.0 2.0 0.00 0.00 0.00
20260507142112 62 11 0.0 2.0 0.00 0.00 0.00
20260507141612 62 11 3.0 5.0 0.00 0.00 0.00
20260507141112 62 8 0.0 0.0 0.00 0.00 0.00
20260507140612 61 325 2.0 0.0 0.00 0.00 0.00
20260507140112 61 8 2.0 4.0 0.00 0.00 0.00
20260507135612 60 338 3.0 3.0 0.00 0.00 0.00
20260507135112 60 358 0.0 0.0 0.00 0.00 0.00
20260507134612 60 321 0.0 0.0 0.00 0.00 0.00
20260507134112 59 321 0.0 0.0 0.00 0.00 0.00
20260507133612 58 321 0.0 0.0 0.00 0.00 0.00
20260507133112 58 242 0.0 0.0 0.00 0.00 0.00
20260507132612 57 242 0.0 0.0 0.00 0.00 0.00
20260507132112 56 242 0.0 0.0 0.00 0.00 0.00
20260507131612 56 242 0.0 0.0 0.00 0.00 0.00
20260507131112 56 242 0.0 0.0 0.00 0.00 0.00
20260507130112 56 242 0.0 0.0 0.00 0.00 0.00
20260507125612 56 242 0.0 0.0 0.00 0.00 0.00
20260507125112 56 328 0.0 0.0 0.00 0.00 0.00
20260507124612 55 328 0.0 0.0 0.00 0.00 0.00
20260507124112 55 328 0.0 0.0 0.00 0.00 0.00
20260507123612 53 328 0.0 0.0 0.00 0.00 0.00
20260507123112 53 328 0.0 0.0 0.00 0.00 0.00
20260507122613 53 328 0.0 0.0 0.00 0.00 0.00
20260507122112 52 328 0.0 0.0 0.00 0.00 0.00
20260507121612 52 328 0.0 0.0 0.00 0.00 0.00
20260507121113 52 328 0.0 0.0 0.00 0.00 0.00
20260507120612 53 328 0.0 0.0 0.00 0.00 0.00
20260507115613 52 328 0.0 0.0 0.00 0.00 0.00
20260507115113 53 328 0.0 0.0 0.00 0.00 0.00
20260507114612 52 328 0.0 0.0 0.00 0.00 0.00
20260507114113 52 297 0.0 0.0 0.00 0.00 0.00
20260507113613 52 15 0.0 0.0 0.00 0.00 0.00
20260507113112 52 15 1.0 0.0 0.00 0.00 0.00
20260507112612 53 13 0.0 0.0 0.00 0.00 0.00
20260507112113 52 349 2.0 2.0 0.00 0.00 0.00
20260507111613 52 307 2.0 1.0 0.00 0.00 0.00
20260507111112 52 327 0.0 0.0 0.00 0.00 0.00
20260507110612 52 341 0.0 2.0 0.00 0.00 0.00
20260507110113 52 345 1.0 3.0 0.00 0.00 0.00
20260507105612 52 301 0.0 0.0 0.00 0.00 0.00
20260507105113 52 301 2.0 0.0 0.00 0.00 0.00
20260507104613 52 342 0.0 0.0 0.00 0.00 0.00
20260507104112 52 342 0.0 0.0 0.00 0.00 0.00
20260507103112 52 329 0.0 0.0 0.00 0.00 0.00
20260507102613 52 329 0.0 0.0 0.00 0.00 0.00
20260507102112 52 329 0.0 0.0 0.00 0.00 0.00
20260507101613 52 329 0.0 0.0 0.00 0.00 0.00
20260507101113 52 332 1.0 0.0 0.00 0.00 0.00
20260507100612 52 342 0.0 1.0 0.00 0.00 0.00
20260507100112 52 303 0.0 0.0 0.00 0.00 0.00
20260507095613 52 303 0.0 0.0 0.00 0.00 0.00
20260507095113 52 303 0.0 0.0 0.00 0.00 0.00
20260507094612 52 46 0.0 0.0 0.00 0.00 0.00
20260507094113 52 46 0.0 0.0 0.00 0.00 0.00
20260507093113 53 46 0.0 0.0 0.00 0.00 0.00
20260507092613 53 46 0.0 0.0 0.00 0.00 0.00
20260507092113 53 46 0.0 0.0 0.00 0.00 0.00
20260507091613 54 46 0.0 0.0 0.00 0.00 0.00
20260507091113 54 46 0.0 0.0 0.00 0.00 0.00
20260507090613 54 348 0.0 2.0 0.00 0.00 0.00
20260507090113 54 39 1.0 1.0 0.00 0.00 0.00
20260507085613 54 352 0.0 0.0 0.00 0.00 0.00
20260507085113 54 352 0.0 0.0 0.00 0.00 0.00
20260507084613 53 352 1.0 0.0 0.00 0.00 0.00
20260507084113 53 329 0.0 0.0 0.00 0.00 0.00
20260507083613 54 296 0.0 0.0 0.00 0.00 0.00
20260507083113 53 296 0.0 0.0 0.00 0.00 0.00
20260507082113 54 272 0.0 0.0 0.00 0.00 0.00
20260507081613 55 272 0.0 0.0 0.00 0.00 0.00
20260507081113 55 272 0.0 0.0 0.00 0.00 0.00
20260507080613 55 331 0.0 0.0 0.00 0.00 0.00
20260507080113 55 331 0.0 0.0 0.00 0.00 0.00
20260507075613 55 331 0.0 0.0 0.00 0.00 0.00
20260507075113 56 331 0.0 0.0 0.00 0.00 0.00
20260507074613 56 331 0.0 0.0 0.00 0.00 0.00
20260507074113 56 355 0.0 0.0 0.00 0.00 0.00
20260507073614 56 21 1.0 1.0 0.00 0.00 0.00
20260507073113 56 3 0.0 0.0 0.00 0.00 0.00
20260507072613 56 3 2.0 1.0 0.00 0.00 0.00
20260507072114 56 355 0.0 4.0 0.00 0.00 0.00
20260507071614 56 20 2.0 2.0 0.00 0.00 0.00
20260507071114 56 314 0.0 0.0 0.00 0.00 0.00
20260507070614 56 314 0.0 0.0 0.00 0.00 0.00
20260507070114 56 300 0.0 0.0 0.00 0.00 0.00
20260507065613 56 32 0.0 0.0 0.00 0.00 0.00
20260507065113 57 77 0.0 0.0 0.00 0.00 0.00
20260507064613 57 13 1.0 1.0 0.00 0.00 0.00
20260507064113 56 10 0.0 0.0 0.00 0.00 0.00
20260507063613 56 10 0.0 0.0 0.00 0.00 0.00
20260507063113 56 38 0.0 0.0 0.00 0.00 0.00
20260507062613 57 38 0.0 0.0 0.00 0.00 0.00
20260507062113 57 38 0.0 0.0 0.00 0.00 0.00
20260507061613 57 38 0.0 0.0 0.00 0.00 0.00
20260507061113 57 38 0.0 0.0 0.00 0.00 0.00
20260507060613 57 38 0.0 0.0 0.00 0.00 0.00
20260507060113 57 38 0.0 0.0 0.00 0.00 0.00
20260507055613 57 38 0.0 0.0 0.00 0.00 0.00
20260507054613 58 10 0.0 0.0 0.00 0.00 0.00
20260507054113 57 10 0.0 0.0 0.00 0.00 0.00
20260507053613 58 3 0.0 1.0 0.00 0.00 0.00
20260507053113 58 287 0.0 0.0 0.00 0.00 0.00
20260507052613 58 287 0.0 0.0 0.00 0.00 0.00
20260507052113 59 80 0.0 3.0 0.00 0.00 0.00
20260507051614 59 62 1.0 1.0 0.00 0.00 0.00
20260507051113 59 76 0.0 1.0 0.00 0.00 0.00
20260507050613 59 106 1.0 0.0 0.00 0.00 0.00
20260507050114 59 38 0.0 0.0 0.00 0.00 0.00
20260507045614 59 39 0.0 0.0 0.00 0.00 0.00
20260507045114 59 17 0.0 1.0 0.00 0.00 0.00
20260507044614 59 69 2.0 1.0 0.00 0.00 0.00
20260507044114 59 86 0.0 1.0 0.00 0.00 0.00
20260507043614 59 80 3.0 2.0 0.00 0.00 0.00
20260507043114 60 55 3.0 4.0 0.00 0.00 0.07
20260507042614 60 8 0.0 0.0 0.00 0.00 0.07
20260507042114 60 8 1.0 0.0 0.00 0.00 0.07
20260507041614 60 84 1.0 2.0 0.00 0.00 0.07
20260507041114 60 62 1.0 0.0 0.00 0.00 0.07
20260507040614 60 349 1.0 1.0 0.00 0.00 0.07
20260507040114 60 21 0.0 0.0 0.00 0.00 0.07
20260507035614 60 59 1.0 5.0 0.00 0.00 0.07
20260507034614 60 51 1.0 2.0 0.00 0.00 0.07
20260507034114 60 329 0.0 5.0 0.00 0.00 0.07
20260507033614 61 30 3.0 4.0 0.00 0.00 0.07
20260507033114 61 310 2.0 4.0 0.00 0.00 0.07
20260507032614 61 359 5.0 7.0 0.00 0.00 0.07
20260507032114 61 18 3.0 3.0 0.00 0.00 0.07
20260507031614 62 8 2.0 7.0 0.00 0.00 0.07
20260507031114 62 331 4.0 3.0 0.00 0.00 0.07
20260507030114 62 27 2.0 1.0 0.00 0.00 0.07
20260507025614 62 300 2.0 1.0 0.00 0.00 0.07
20260507025114 62 348 0.0 0.0 0.00 0.00 0.07
20260507024614 62 10 2.0 2.0 0.00 0.00 0.07
20260507024114 62 32 1.0 0.0 0.00 0.00 0.07
20260507023614 62 158 2.0 1.0 0.00 0.00 0.07
20260507023114 62 31 2.0 1.0 0.00 0.00 0.07
20260507022614 62 18 1.0 2.0 0.00 0.00 0.07
20260507022114 62 15 2.0 2.0 0.00 0.00 0.07
20260507021614 62 56 3.0 5.0 0.00 0.00 0.07
20260507021115 62 20 0.0 1.0 0.00 0.00 0.07
20260507020615 62 25 0.0 7.0 0.00 0.00 0.07
20260507020114 62 61 1.0 2.0 0.00 0.00 0.07
20260507015614 62 142 2.0 2.0 0.00 0.00 0.07
20260507015115 62 99 2.0 0.0 0.00 0.00 0.07
20260507014614 62 334 0.0 0.0 0.00 0.00 0.07
20260507014114 62 4 3.0 3.0 0.00 0.00 0.07
20260507013614 62 31 3.0 2.0 0.00 0.00 0.07
20260507013115 62 86 1.0 2.0 0.00 0.00 0.07
20260507012614 62 42 2.0 1.0 0.00 0.00 0.07
20260507012114 62 306 0.0 0.0 0.00 0.00 0.07
20260507011114 62 68 2.0 2.0 0.00 0.00 0.07
20260507010614 62 20 2.0 3.0 0.00 0.00 0.07
20260507010114 62 44 0.0 1.0 0.00 0.00 0.07
20260507005614 62 21 0.0 0.0 0.00 0.00 0.07
20260507005114 63 359 2.0 4.0 0.00 0.00 0.07
20260507003114 63 0 1.0 0.0 0.00 0.00 0.07
20260507002614 63 25 2.0 0.0 0.00 0.00 0.07
20260507002114 64 1 4.0 4.0 0.00 0.00 0.07
20260507001614 64 310 3.0 4.0 0.00 0.00 0.07
20260507001114 64 56 1.0 1.0 0.00 0.00 0.07
20260507000114 65 89 0.0 1.0 0.00 0.00 0.07
20260506235614 66 31 2.0 4.0 0.00 0.00 0.07
20260506235115 66 66 3.0 5.0 0.00 0.00 0.07
20260506234115 64 321 0.0 3.0 0.00 0.00 0.07
20260506233615 64 69 1.0 2.0 0.00 0.00 0.07
20260506232615 64 115 2.0 3.0 0.00 0.00 0.07
20260506232115 63 38 2.0 1.0 0.00 0.00 0.07
20260506231615 63 96 1.0 2.0 0.00 0.00 0.07
20260506231115 63 27 1.0 1.0 0.00 0.00 0.07
20260506230615 63 160 1.0 1.0 0.00 0.00 0.07
20260506230115 62 68 1.0 2.0 0.00 0.00 0.07
20260506225615 62 58 1.0 0.0 0.00 0.00 0.07
20260506225115 62 184 2.0 2.0 0.00 0.00 0.07
20260506224615 62 124 0.0 0.0 0.00 0.00 0.07
20260506224115 61 124 0.0 0.0 0.00 0.00 0.07
20260506223615 61 124 1.0 0.0 0.00 0.00 0.07
20260506223115 61 68 0.0 0.0 0.00 0.00 0.07
20260506222615 60 92 2.0 3.0 0.00 0.00 0.07
20260506221615 60 351 1.0 0.0 0.00 0.00 0.07
20260506221115 60 70 1.0 2.0 0.00 0.00 0.07
20260506220615 59 0 0.0 0.0 0.00 0.00 0.07
20260506220115 60 352 1.0 3.0 0.00 0.00 0.06
20260506215615 59 1 4.0 3.0 0.00 0.00 0.05
20260506215115 61 355 3.0 9.0 0.00 0.00 0.05
20260506214615 63 45 2.0 4.0 0.00 0.00 0.05
20260506214115 64 338 3.0 7.0 0.00 0.00 0.05
20260506213615 64 329 4.0 5.0 0.00 0.00 0.05
20260506213116 64 327 1.0 1.0 0.00 0.00 0.05
20260506212615 65 322 3.0 6.0 0.00 0.00 0.05
20260506212115 66 6 0.0 1.0 0.00 0.00 0.05
20260506211615 66 7 0.0 0.0 0.00 0.00 0.05
20260506211115 65 322 0.0 0.0 0.00 0.00 0.05
20260506210615 66 334 3.0 3.0 0.00 0.00 0.05
20260506210115 66 315 0.0 0.0 0.00 0.00 0.05
20260506205615 67 53 2.0 2.0 0.00 0.00 0.05
20260506205115 68 339 2.0 2.0 0.00 0.00 0.05
20260506203615 68 267 3.0 1.0 0.00 0.00 0.05
20260506203115 67 11 0.0 0.0 0.00 0.00 0.05
20260506202615 67 30 1.0 1.0 0.00 0.00 0.05
20260506202116 66 355 2.0 2.0 0.00 0.00 0.05
20260506201615 66 41 4.0 3.0 0.00 0.00 0.05
20260506201115 66 355 0.0 3.0 0.00 0.00 0.05
20260506200616 66 339 1.0 4.0 0.00 0.00 0.05
20260506200115 65 345 2.0 3.0 0.00 0.00 0.05
20260506195615 65 62 2.0 1.0 0.00 0.00 0.05
20260506195115 64 52 1.0 6.0 0.00 0.00 0.05
20260506194615 64 341 4.0 8.0 0.00 0.00 0.05
20260506194115 64 146 3.0 2.0 0.00 0.00 0.05
20260506193615 63 14 2.0 2.0 0.00 0.00 0.05
20260506193116 62 11 3.0 6.0 0.00 0.00 0.05
20260506192615 61 332 0.0 1.0 0.00 0.00 0.05
20260506192115 61 344 3.0 6.0 0.00 0.00 0.05
20260506191615 60 13 0.0 2.0 0.00 0.00 0.05
20260506191115 60 8 5.0 4.0 0.00 0.00 0.05
20260506190615 59 358 3.0 2.0 0.00 0.00 0.05
20260506190115 59 341 1.0 2.0 0.00 0.00 0.05
20260506185616 58 8 2.0 4.0 0.00 0.00 0.05
20260506185116 58 356 3.0 5.0 0.00 0.00 0.05
20260506184615 57 58 2.0 2.0 0.00 0.00 0.05
20260506184116 57 351 2.0 4.0 0.00 0.00 0.05
20260506183616 57 353 2.0 4.0 0.00 0.00 0.05
20260506183116 57 17 5.0 5.0 0.00 0.00 0.05
20260506182616 57 120 1.0 1.0 0.00 0.00 0.05
20260506182116 57 59 5.0 3.0 0.00 0.00 0.05
20260506181616 58 344 3.0 10.0 0.00 0.00 0.05
20260506181116 59 68 3.0 6.0 0.00 0.00 0.05